Regional Weather Roundup
Issued by NWS Cleveland, OH

Home | Current Version | Previous Version | Graphics & Text | Print | Product List | Glossary On
Versions: 1 2 3 4 5 6 7 8 9 10 11 12 13 14 15 16 17 18 19 20 21 22 23 24 25 26 27 28 29 30 31 32 33 34 35 36 37 38 39 40 41 42 43 44 45 46 47 48 49 50
000
ASUS41 KCLE 270600
RWRCLE
OHIO REGIONAL WEATHER ROUNDUP
NATIONAL WEATHER SERVICE WILMINGTON, OH
200 AM EDT MON MAR 27 2017

NOTE: "FAIR" INDICATES FEW OR NO CLOUDS BELOW 12,000 FEET WITH NO
SIGNIFICANT WEATHER AND/OR OBSTRUCTIONS TO VISIBILITY.

OHZ001>008-015>018-024>027-034-035-043-044-270700-
   NORTHWEST OHIO

CITY           SKY/WX    TMP DP  RH WIND       PRES   REMARKS
DEFIANCE       CLOUDY    52  51  97 SW5       29.89F
FINDLAY        CLOUDY    54  50  86 SW9       29.90S
TOLEDO EXPRESS LGT RAIN  53  52  96 SW10      29.88F
TOLEDO EXEC    CLOUDY    53  52  96 SW8       29.89F
LIMA             N/A     53  51  93 SW8       29.91F
$$

OHZ009>014-019>023-028>033-038-089-270700-
   NORTHEAST OHIO

CITY           SKY/WX    TMP DP  RH WIND       PRES   REMARKS
CLE-HOPKINS    CLOUDY    57  52  83 S8        29.92F
CLE-LAKEFRONT  CLOUDY    57  53  86 S9        29.88F
CUY CO. ARPT   NOT AVBL
LORAIN-ELYRIA  MOCLDY    54  51  90 S8        29.90F
ASHTABULA      CLOUDY    52  52 100 S9        29.91F
AKRON-CANTON   CLOUDY    55  51  86 S8        29.92F
WOOSTER        NOT AVBL
MANSFIELD      CLOUDY    54  53  97 S9        29.91F
YOUNGSTOWN     LGT RAIN  53  52  96 SE9       29.93F
$$

OHZ042-051>053-060>062-070>072-077>081-270700-
  SOUTHWEST OHIO

CITY           SKY/WX    TMP DP  RH WIND       PRES   REMARKS
CINC-COVINGTON MOCLDY    50  50 100 S5        29.96F
CINC-LUNKEN    FOG       50  50 100 CALM      29.97F VSB 1/2
HAMILTON       FOG       47  47 100 CALM      29.96F VSB 1/4
DAYTON         NOT AVBL
WRIGHT-PAT AFB NOT AVBL
DAYTON GENERAL FAIR      50  49  96 SW5       29.94F
WILMINGTON     FAIR      51  50  96 SW6       29.96S
$$

OHZ036-037-039>041-045>050-054>059-063>069-073>076-082>088-270700-
  CENTRAL AND SOUTHEAST OHIO

CITY           SKY/WX    TMP DP  RH WIND       PRES   REMARKS
COLUMBUS       FAIR      55  53  93 SW5       29.94F
OSU AIRPORT    FAIR      53  53 100 SW7       29.94S
BOLTON FIELD   NOT AVBL
RICKENBACK AFB NOT AVBL
NEWARK         FAIR      52  51  97 SW3       29.94F FOG
MARION         MOCLDY    53  51  93 SW9       29.93S
LANCASTER      FAIR      57  53  86 SW5       29.96F
ZANESVILLE     CLOUDY    55  53  93 S6        29.95F
NEW PHILLY     CLOUDY    55  54  96 S5        29.94F
$$



USA.gov is the U.S. government's official web portal to all federal, state and local government web resources and services.